Regional Weather Roundup
Issued by NWS Newport/Morehead, NC

Current Version | Previous Version | Text Only | Print | Product List | Glossary Off
Versions: 1 2 3 4 5 6 7 8 9 10 11 12 13 14 15 16 17 18 19 20 21 22 23 24 25 26 27 28 29 30 31 32 33 34 35 36 37 38 39 40 41 42 43 44 45 46 47 48 49 50
000 ASUS42 KMHX 230913 RWRMHX WEATHER ROUNDUP FOR EASTERN NORTH CAROLINA NATIONAL WEATHER SERVICE NEWPORT/MOREHEAD CITY NC 400 AM EST FRI FEB 23 2018 NOTE: "FAIR" INDICATES FEW OR NO CLOUDS BELOW 12,000 FEET WITH NO SIGNIFICANT WEATHER AND/OR OBSTRUCTIONS TO VISIBILITY NCZ015>017-031-032-045>047-102-103-231000- NORTH COAST CITY SKY/WX TMP DP RH WIND PRES REMARKS EDENTON CLOUDY 48 47 97 N5 30.51R FOG ELIZABETH CITY CLOUDY 48 48 100 N12 30.51R FOG KITTY HAWK FOG N/A N/A N/A CALM 30.47R VSB 1 MANTEO CLOUDY 47 47 100 N10 30.49R FOG $$ NCZ045>047-081-094-103-104-231000- CENTRAL COAST CITY SKY/WX TMP DP RH WIND PRES REMARKS FRISCO CLOUDY 57 56 96 N7 30.45F $$ NCZ095-097-098-100-101-231000- SOUTHERN COAST CITY SKY/WX TMP DP RH WIND PRES REMARKS BEAUFORT FOG 58 57 97 CALM 30.43F VSB 1/4 CEDAR ISLAND NOT AVBL JACKSONVILLE NOT AVBL PINEY ISLAND NOT AVBL WILMINGTON MOCLDY 56 56 100 CALM 30.43S FOG $$ NCZ011>013-027>030-043-044-078>080-089-090>093-098-231000- COASTAL PLAIN CITY SKY/WX TMP DP RH WIND PRES REMARKS AHOSKIE CLOUDY 46 46 100 NE6 30.52R FOG CLINTON CLOUDY 60 60 100 CALM 30.44S VSB 1/2 ELIZABETHTOWN NOT AVBL GOLDSBORO CLOUDY 58 57 96 CALM 30.42S FOG GREENVILLE CLOUDY 54 54 100 NE7 30.47S HAVELOCK NOT AVBL KENANSVILLE NOT AVBL KINSTON CLOUDY 60 60 100 CALM 30.44S FOG NEW BERN FAIR 61 61 100 W3 30.44F RICHLANDS FOG 55 55 100 CALM 30.44S VSB 1/2 ROCKY MOUNT CLOUDY 53 51 93 NE9 30.48R FOG WASHINGTON CLOUDY 53 51 94 NE7 30.48R WHITEVILLE FOG 57 56 97 CALM 30.42S VSB 1/4 $$ AMZ130-135-150-152-154-156-158-170-250-252-270-ANZ085-086-088-633-658-670-231000- MARINE OBSERVATIONS STATION/POSITION TIME TEMP WIND PRES WAVE SWELL AIR SEA DIR/SP/G HT/PER HT/PER (UTC) (F) (DEG/KT/KT) (MB) (FT/S) (FT/S) CHESAPEAKE LIGHT NOT AVBL 64 E VA BEACH 0850 51 50 360/ 8/ 10 1032.0 5/ 7 5/ 7 DUCK 0848 46 360/ 15/ 17 1031.8 2 E DUCK 0830 46 N/A 4/14 2/14 OREGON INLET 0842 46 64 340/ 8/ 12 1031.8 13E OREGON INLT 0848 49 N/A 4/ 9 3/ 9 HATTERAS CG 0848 20/ 9/ 12 N/A DIAMOND BUOY 0900 66 74 350/ 8/ 10 1031.1 CAPE LOOKOUT 0900 170/ 3/ 3 1030.9 BEAUFORT LAB 0848 120/ 1/ 1 N/A 30 SE NEW RVR IN 0808 69 70 240/ 4/ 4 1030.7 30 SE NEW RVR IN 0900 70 N/A 4/ 9 2/15 27 SE WRIGHTSVLE 0808 69 69 210/ 4/ 6 1030.6 5 SE WRIGHTSVLE 0808 60 58 100/ 2/ 4 1030.5 225 S CAPE HAT 0850 71 73 120/ 8/ 10 1031.1 5/ 8 5/ 8 41 SE CHARLESTON 0900 69 68 60/ 4/ 4 1029.5 $$

USA.gov is the U.S. government's official web portal to all federal, state and local government web resources and services.